Location: Cactus School
(34.5700°N, 118.0931°W)
Time: 13:12:57
(UTC-07:00)

Transit 4A - Pass Details

Date: 21 April 2024
Orbit: 871 x 971 km, 66.8° (Epoch: 21 May)

Event Time Altitude Azimuth Distance (km) Brightness Sun altitude
Rises 11:31:02 0° 165° (SSE) 3,558 11.3 61.2°
Reaches altitude 10° 11:34:18 10° 148° (SSE) 2,600 10.9 61.7°
Maximum altitude 11:38:23 19° 105° (ESE) 2,010 10.4 62.2°
Drops below altitude 10° 11:42:24 10° 62° (ENE) 2,565 10.4 62.8°
Sets 11:45:35 0° 45° (NE) 3,493 10.9 63.2°
